Regional Weather Roundup
Issued by NWS San Angelo, TX

Home | Current Version | Previous Version | Text Only | Print | Product List | Glossary On
Versions: 1 2 3 4 5 6 7 8 9 10 11 12 13 14 15 16 17 18 19 20 21 22 23 24 25 26 27 28 29 30 31 32 33 34 35 36 37 38 39 40 41 42 43 44 45 46 47 48 49 50
000
ASUS44 KSJT 281610
RWRSJT
WEST CENTRAL TEXAS REGIONAL WEATHER ROUNDUP
NATIONAL WEATHER SERVICE SAN ANGELO TX
1000 AM CST TUE FEB 28 2017

NOTE: "FAIR" INDICATES FEW OR NO CLOUDS BELOW 12,000 FEET WITH NO
SIGNIFICANT WEATHER AND/OR OBSTRUCTIONS TO VISIBILITY.

TXZ049-054-064>066-071>073-076>078-098-099-113-114-127-128-139-140-
154-155-168>170-281700
...LOCATIONS ACROSS WEST CENTRAL TEXAS...

CITY           SKY/WX    TMP DP  RH WIND       PRES   REMARKS
SAN ANGELO     PTSUNNY   73  62  68 SW14      29.93S
ABILENE        PTSUNNY   66  62  87 SW13      29.92S
DYESS AFB      CLOUDY    69  63  80 W15       29.89F
JUNCTION       CLOUDY    70  65  84 S9        29.96S
SWEETWATER     CLOUDY    67  59  74 S15       29.94F
BROWNWOOD      CLOUDY    70  64  83 S7        29.94F
COLEMAN        CLOUDY    68  63  83 S6        29.95S
SONORA         CLOUDY    70  63  78 SW10G16   30.02R
OZONA          FAIR      66  59  77 MISG      30.00S
BRADY          NOT AVBL
$$

TEXAS PANHANDLE/OKLAHOMA PANHANDLE

CITY           SKY/WX    TMP DP  RH WIND       PRES   REMARKS
AMARILLO       CLOUDY    59  29  31 S13       29.81S
BORGER         PTSUNNY   64  27  24 SW21G33   29.75S
CANADIAN       CLOUDY    69  29  22 SW23G30   29.72F
DALHART        CLOUDY    57  30  35 SW18      29.74F
DUMAS          CLOUDY    57  28  32 SW21      29.75S
GUYMON         NOT AVBL
HEREFORD       CLOUDY    60  29  30 SW16G22   29.83S
PAMPA          CLOUDY    64  28  25 SW25G33   29.78R
PERRYTON       CLOUDY    61  31  31 SW17G23   29.71S
$$

SOUTHERN PANHANDLE/SOUTH PLAINS/ROLLING PLAINS

CITY           SKY/WX    TMP DP  RH WIND       PRES   REMARKS
LUBBOCK        CLOUDY    61  26  26 SW15      29.89R
SNYDER         PTSUNNY   62  51  67 S9        29.92F
CHILDRESS      CLOUDY    66  29  24 SW16      29.82F
SEMINOLE       CLOUDY    56  32  39 SW7       29.93S
$$

PERMIAN BASIN

CITY           SKY/WX    TMP DP  RH WIND       PRES   REMARKS
MIDLAND        PTSUNNY   64  41  42 S15       29.94R
ODESSA         CLOUDY    65  31  28 S10       29.94S
WINK           PTSUNNY   57  28  33 S8        29.93R HAZE
$$

FAR WEST/SOUTHWEST MOUNTAINS/TRANS PECOS

CITY           SKY/WX    TMP DP  RH WIND       PRES   REMARKS
ALPINE         CLOUDY    67  16  13 SW16G22   30.09S
DRYDEN           N/A     71  35  26 W7        29.96S
EL PASO        PTSUNNY   64  15  15 SW15G21   29.94F
FORT STOCKTON  CLOUDY    70  20  15 SW10      29.97R
GUADALUPE PASS CLOUDY    56  18  22 SW32      29.99S
MARFA          CLOUDY    60  18  19 S12       30.08R
PECOS          CLOUDY    59  26  29 CALM      29.93S
$$

DALLAS/FORT WORTH METROPLEX

CITY           SKY/WX    TMP DP  RH WIND       PRES   REMARKS
DFW AIRPORT    CLOUDY    74  67  78 S16       29.90F HAZE
FTW MEACHAM    CLOUDY    73  64  73 S16       29.91S
DAL-EXECUTIVE  CLOUDY    73  66  78 S9G16     29.92S HAZE
GRAND PRAIRIE  PTSUNNY   72  64  78 S7        29.93S HAZE
ADDISON        CLOUDY    72  64  78 S9G16     29.95R HAZE
MESQUITE       CLOUDY    72  66  83 S8        29.93S FOG
LANCASTER      CLOUDY    71  67  85 S10       29.94S FOG
$$

NORTH CENTRAL TEXAS

CITY           SKY/WX    TMP DP  RH WIND       PRES   REMARKS
SHRMAN/DENISON PTSUNNY   70  64  83 S14       29.91S
GAINESVILLE    CLOUDY    68  64  85 S12       29.92S HAZE
BRIDGEPORT     CLOUDY    70  62  75 S12G17    29.93R
DENTON         CLOUDY    72  65  78 S15G24    29.91S
WAXAHACHIE     CLOUDY    71  68  90 S14       29.94S FOG
GRANBURY       CLOUDY    72  64  74 S10       29.94R
$$

WESTERN NORTH TEXAS

CITY           SKY/WX    TMP DP  RH WIND       PRES   REMARKS
WICHITA FALLS  CLOUDY    67  61  81 S20G25    29.85S
VERNON         CLOUDY    62  48  59 S10       29.84F
BRECKENRIDGE   CLOUDY    72  63  73 SW13      29.90F
COMANCHE       CLOUDY    70  64  82 SW9       29.95R
$$

CENTRAL AND SOUTH CENTRAL TEXAS

CITY           SKY/WX    TMP DP  RH WIND       PRES   REMARKS
AUSTIN/BERGSTM CLOUDY    76  68  76 S17G24    29.94F HAZE
WACO           CLOUDY    73  68  84 S10       29.92S HAZE
HILLSBORO      CLOUDY    72  68  87 S9        29.93S FOG
TEMPLE         NOT AVBL
KILLEEN-GRAY   NOT AVBL
FORT HOOD      NOT AVBL
GEORGETOWN     PTSUNNY   73  64  73 S17G24    29.93S FOG
LAGO VISTA     CLOUDY    73  67  79 S12G20    29.96S HAZE
SAN MARCOS     PTSUNNY   75  68  78 S16G25    29.97R FOG
NEW BRAUNFELS  CLOUDY    76  68  76 S14       29.95S HAZE
RANDOLPH AFB   PTSUNNY   73  72  94 S14       29.97R
SAN ANTONIO    CLOUDY    72  68  87 S12       29.98R FOG
STINSON        CLOUDY    75  68  78 S12       29.95R HAZE
PLEASANTON     NOT AVBL
LA GRANGE      CLOUDY    77  70  79 S17       29.96S
GIDDINGS       MOSUNNY   75  67  75 S14       29.99R
$$

EAST TEXAS

CITY           SKY/WX    TMP DP  RH WIND       PRES   REMARKS
PARIS          CLOUDY    70  64  83 SW13      29.95S
CLARKSVILLE    NOT AVBL
TYLER          CLOUDY    75  70  83 S20G26    29.95S
LONGVIEW       CLOUDY    77  70  79 S21G28    29.94F
PALESTINE      CLOUDY    75  69  83 S9G20     29.97F
NACOGDOCHES    PTSUNNY   75  66  73 S13G21    29.99S
$$

TEXAS HILL COUNTRY AND EDWARDS PLATEAU

CITY           SKY/WX    TMP DP  RH WIND       PRES   REMARKS
LLANO          PTSUNNY   73  64  73 S3        29.98R
HORSESHOE BAY    N/A     74  65  74 S5G22     29.95R
KERRVILLE      CLOUDY    66  65  95 S6        29.98S FOG
FREDERICKSBRG  CLOUDY    68  64  88 SW10      29.98R FOG
ROCKSPRINGS    CLOUDY    66  64  94 SW8       30.02R FOG
HONDO          CLOUDY    73  69  87 S9        29.97S FOG
UVALDE         CLOUDY    70  68  91 CALM      29.97S FOG
DEL RIO        CLOUDY    70  67  90 SE7       29.96R FOG
$$

SOUTHEAST TEXAS

CITY           SKY/WX    TMP DP  RH WIND       PRES   REMARKS
COLLEGE STN    PTSUNNY   77  68  73 S21G31    29.98S
CALDWELL       NOT AVBL
CROCKETT       CLOUDY    75  68  78 S12       30.02S
BRENHAM        CLOUDY    77  69  76 S15       30.00R
HUNTSVILLE     MOSUNNY   77  65  66 S18G24    30.00F
CONROE         CLOUDY    75  66  73 S17G24    30.02R
HOUSTON BUSH   CLOUDY    76  66  71 S17       30.02R
HOUSTON HOBBY  PTSUNNY   77  69  76 S21       30.02S
PERLAND        CLOUDY    77  69  76 S15G21    30.04S
WHARTON        PTSUNNY   76  68  76 SE15G23   30.01F
$$

THE UPPER TEXAS COAST

CITY           SKY/WX    TMP DP  RH WIND       PRES   REMARKS
ORANGE         CLOUDY    75  69  80 S14       30.09R
PORT ARTHUR    CLOUDY    77  67  71 S15G23    30.05S
GALVESTON      MOSUNNY   73  69  87 S15       30.05R
ANGLETON       CLOUDY    76  71  85 S17       30.03R
BAY CITY       CLOUDY    75  71  85 S14       30.02S
$$

TEXAS COASTAL BEND, RIO GRANDE PLAINS DEEP SOUTH TEXAS

CITY           SKY/WX    TMP DP  RH WIND       PRES   REMARKS
VICTORIA       CLOUDY    78  69  73 S23G29    29.99S
BEEVILLE       PTSUNNY   77  72  85 S21G26    29.97S
ROCKPORT       SUNNY     78  70  76 SE14G22   29.98R
PORT ARANSAS   MOSUNNY   73  70  90 SE12G17   29.99R
PORT LAVACA    CLOUDY    77  73  87 S17G25    30.00R
CORPUS CHRISTI PTSUNNY   79  71  76 SE22G31   29.97R
KINGSVILLE NAS CLOUDY    81  71  71 SE17      29.96R
COTULLA        CLOUDY    76  68  76 SE5       29.96R HAZE
LAREDO         CLOUDY    78  69  73 S12       29.96R
BROWNSVILLE    MOSUNNY   81  68  64 S24G33    29.97S
PORT ISABEL    MOSUNNY   80  69  69 S24G31    29.96R
HEBBRONVILLE   MOSUNNY   76  66  71 S10       29.96S HAZE
MCALLEN        MOSUNNY   82  69  64 S20G29    29.95R
WESLACO        CLOUDY    80  69  69 S21G30    29.94R
FALFURRIAS     PTSUNNY   78  69  73 S13       29.96R
EDINBURG       PTSUNNY   83  68  60 S18G25    29.95R
$$




USA.gov is the U.S. government's official web portal to all federal, state and local government web resources and services.